Reidsville, NC

1:52 AM EDT on June 29, 2017 (GMT -0400)
Reidsville

Weather History for KSIF - April, 2013

Change the Weather History Date:

Sunday, April 14, 2013

  Actual Average (KGSO) Record (KGSO)
Temperature  
Mean Temperature 58 °F -  
Max Temperature 79 °F 68 °F 90 °F (1922)
Min Temperature 37 °F 46 °F 29 °F (1973)
Degree Days  
Heating Degree Days 7    
Growing Degree Days 8 (Base 50)    
Moisture  
Dew Point 39 °F    
Average Humidity 50    
Maximum Humidity 98    
Minimum Humidity 19    
Precipitation  
Precipitation 0.00 in - - ()
Sea Level Pressure  
Sea Level Pressure 30.05 in    
Wind  
Wind Speed 2 mph (South)    
Max Wind Speed 12 mph    
Max Gust Speed 16 mph    
Visibility 10 miles    
Events      
Averages and records for this station are not official NWS values.
T = Trace of Precipitation, MM = Missing Value Source: NWS Daily Summary

Daily Weather History Graph

Daily Weather History Graph

Search for Another Location

Airport or City:

Trip Planner

Search our weather history database for the weather conditions in past years. The results will help you decide how hot, cold, wet, or windy it might be!

Date:

Astronomy

Apr. 14, 2013 Rise Set
Actual Time 6:46 AM EDT 7:52 PM EDT
Civil Twilight 6:20 AM EDT 8:19 PM EDT
Nautical Twilight 5:48 AM EDT 8:51 PM EDT
Astronomical Twilight 5:16 AM EDT 9:23 PM EDT
Moon 9:27 AM EDT (4/14) 11:59 PM EDT (4/14)
Length of Visible Light 13h 59m
Length of Day
13h 06m
Waxing Crescent, 17% of the Moon is Illuminated
Apr 14
Waxing Crescent
Apr 18
First Quarter
Apr 25
Full
May 2
Last Quarter
May 9
New

Hourly Weather History & Observations

Time (EDT) Temp. Dew Point Humidity Pressure Visibility Wind Dir Wind Speed Gust Speed Precip Events Conditions
12:15 AM 53.8 °F 38.1 °F 55% 30.02 in 10.0 mi Calm Calm - N/A   Clear
12:35 AM 49.8 °F 39.9 °F 69% 30.02 in 10.0 mi Calm Calm - N/A   Clear
12:55 AM 49.5 °F 38.8 °F 67% 30.03 in 10.0 mi Calm Calm - N/A   Clear
1:15 AM 47.1 °F 39.6 °F 75% 30.03 in 10.0 mi Calm Calm - N/A   Clear
1:35 AM 47.5 °F 38.8 °F 72% 30.03 in 10.0 mi Calm Calm - N/A   Clear
1:55 AM 48.2 °F 39.0 °F 71% 30.04 in 10.0 mi Calm Calm - N/A   Clear
2:15 AM 46.4 °F 38.1 °F 73% 30.04 in 10.0 mi Calm Calm - N/A   Clear
2:35 AM 44.8 °F 38.7 °F 79% 30.03 in 10.0 mi Calm Calm - N/A   Clear
2:55 AM 42.6 °F 38.7 °F 86% 30.03 in 10.0 mi Calm Calm - N/A   Clear
3:15 AM 42.4 °F 37.9 °F 84% 30.03 in 10.0 mi Calm Calm - N/A   Clear
3:35 AM 45.0 °F 38.8 °F 79% 30.04 in 10.0 mi Calm Calm - N/A   Clear
3:55 AM 42.4 °F 38.7 °F 86% 30.04 in 10.0 mi Calm Calm - N/A   Clear
4:15 AM 43.3 °F 38.3 °F 82% 30.05 in 10.0 mi Calm Calm - N/A   Clear
4:35 AM 41.7 °F 38.3 °F 88% 30.05 in 10.0 mi Calm Calm - N/A   Clear
4:55 AM 39.9 °F 37.9 °F 93% 30.05 in 10.0 mi Calm Calm - N/A   Clear
5:15 AM 40.5 °F 38.3 °F 92% 30.06 in 10.0 mi Calm Calm - N/A   Clear
5:35 AM 40.6 °F 38.5 °F 92% 30.06 in 10.0 mi Calm Calm - N/A   Clear
5:55 AM 42.1 °F 38.8 °F 88% 30.06 in 10.0 mi Calm Calm - N/A   Clear
6:15 AM 41.4 °F 39.0 °F 91% 30.07 in 10.0 mi Calm Calm - N/A   Clear
6:35 AM 40.3 °F 38.8 °F 95% 30.08 in 10.0 mi Calm Calm - N/A   Clear
6:55 AM 38.3 °F 36.7 °F 94% 30.08 in 10.0 mi Calm Calm - N/A   Clear
7:15 AM 37.8 °F 37.0 °F 97% 30.08 in 10.0 mi Calm Calm - N/A   Clear
7:35 AM 40.1 °F 39.6 °F 98% 30.08 in 10.0 mi Calm Calm - N/A   Clear
7:55 AM 42.3 °F 40.3 °F 93% 30.09 in 10.0 mi Calm Calm - N/A   Clear
8:15 AM 47.7 °F 43.7 °F 86% 30.10 in 10.0 mi Calm Calm - N/A   Clear
8:35 AM 50.7 °F 43.3 °F 76% 30.10 in 10.0 mi Calm Calm - N/A   Clear
8:55 AM 52.7 °F 43.7 °F 71% 30.11 in 10.0 mi Calm Calm - N/A   Clear
9:15 AM 54.7 °F 41.5 °F 61% 30.11 in 10.0 mi Calm Calm - N/A   Clear
9:35 AM 57.6 °F 41.2 °F 54% 30.11 in 10.0 mi Calm Calm - N/A   Clear
9:55 AM 61.2 °F 40.5 °F 47% 30.11 in 10.0 mi Calm Calm - N/A   Clear
10:15 AM 63.9 °F 39.7 °F 41% 30.11 in 10.0 mi Calm Calm - N/A   Clear
10:35 AM 65.7 °F 37.9 °F 36% 30.11 in 10.0 mi Calm Calm - N/A   Clear
10:55 AM 67.6 °F 35.6 °F 31% 30.11 in 10.0 mi Calm Calm - N/A   Clear
11:15 AM 69.1 °F 36.7 °F 30% 30.11 in 10.0 mi Calm Calm - N/A   Clear
11:35 AM 70.7 °F 34.5 °F 26% 30.10 in 10.0 mi Calm Calm - N/A   Clear
11:55 AM 72.3 °F 37.2 °F 28% 30.09 in 10.0 mi Calm Calm - N/A   Clear
12:15 PM 72.3 °F 37.6 °F 28% 30.08 in 10.0 mi Calm Calm - N/A   Clear
12:35 PM 74.7 °F 37.4 °F 26% 30.08 in 10.0 mi SW 3.5 mph - N/A   Clear
12:55 PM 75.0 °F 36.9 °F 25% 30.08 in 10.0 mi Calm Calm - N/A   Clear
1:15 PM 76.6 °F 36.5 °F 23% 30.08 in 10.0 mi South 5.8 mph - N/A   Clear
1:35 PM 76.6 °F 36.5 °F 23% 30.07 in 10.0 mi South 11.5 mph - N/A   Clear
1:55 PM 77.7 °F 36.5 °F 23% 30.06 in 10.0 mi South 6.9 mph - N/A   Clear
2:15 PM 78.8 °F 37.0 °F 22% 30.06 in 10.0 mi SSW 9.2 mph - N/A   Clear
2:35 PM 79.5 °F 37.0 °F 22% 30.05 in 10.0 mi South 6.9 mph - N/A   Clear
2:55 PM 79.5 °F 36.9 °F 22% 30.04 in 10.0 mi South 8.1 mph - N/A   Clear
3:15 PM 79.5 °F 35.4 °F 20% 30.03 in 10.0 mi East 4.6 mph - N/A   Clear
3:35 PM 79.5 °F 36.0 °F 21% 30.02 in 10.0 mi SSW 6.9 mph - N/A   Clear
3:55 PM 79.7 °F 34.0 °F 19% 30.02 in 10.0 mi South 6.9 mph 16.1 mph N/A   Clear
4:15 PM 78.6 °F 32.4 °F 19% 30.01 in 10.0 mi SW 3.5 mph 16.1 mph N/A   Clear
4:35 PM 78.4 °F 32.5 °F 19% 30.02 in 10.0 mi South 8.1 mph - N/A   Clear
4:55 PM 77.9 °F 34.0 °F 20% 30.02 in 10.0 mi South 8.1 mph - N/A   Clear
5:15 PM 77.9 °F 35.6 °F 22% 30.02 in 10.0 mi South 6.9 mph - N/A   Clear
5:35 PM 77.2 °F 33.8 °F 21% 30.02 in 10.0 mi SSW 10.4 mph - N/A   Clear
5:55 PM 76.6 °F 35.8 °F 23% 30.02 in 10.0 mi South 4.6 mph - N/A   Clear
6:15 PM 75.6 °F 38.5 °F 26% 30.02 in 10.0 mi SSE 4.6 mph - N/A   Clear
6:35 PM 74.8 °F 38.8 °F 27% 30.02 in 10.0 mi SSE 3.5 mph - N/A   Clear
6:55 PM 74.1 °F 38.8 °F 28% 30.03 in 10.0 mi SSE 6.9 mph - N/A   Clear
7:15 PM 73.8 °F 38.1 °F 27% 30.03 in 10.0 mi South 4.6 mph - N/A   Clear
7:35 PM 73.2 °F 38.7 °F 29% 30.02 in 10.0 mi SSW 3.5 mph - N/A   Clear
7:55 PM 72.5 °F 38.1 °F 29% 30.02 in 10.0 mi SSW 5.8 mph - N/A   Clear
8:15 PM 72.1 °F 38.1 °F 29% 30.02 in 10.0 mi SSW 4.6 mph - N/A   Clear
8:35 PM 71.1 °F 39.2 °F 31% 30.02 in 10.0 mi South 4.6 mph - N/A   Scattered Clouds
8:55 PM 70.7 °F 41.0 °F 34% 30.02 in 10.0 mi South 6.9 mph - N/A   Scattered Clouds
9:15 PM 70.7 °F 42.4 °F 36% 30.01 in 10.0 mi South 6.9 mph - N/A   Mostly Cloudy
9:35 PM 70.0 °F 43.5 °F 38% 30.01 in 10.0 mi South 3.5 mph - N/A   Scattered Clouds
9:55 PM 68.9 °F 44.4 °F 41% 30.02 in 10.0 mi SSE 3.5 mph - N/A   Scattered Clouds
10:15 PM 68.9 °F 44.6 °F 42% 30.02 in 10.0 mi SSE 4.6 mph - N/A   Mostly Cloudy
10:35 PM 68.2 °F 45.3 °F 44% 30.03 in 10.0 mi South 6.9 mph - N/A   Overcast
10:55 PM 68.7 °F 45.9 °F 44% 30.04 in 10.0 mi SSW 6.9 mph - N/A   Overcast
11:15 PM 68.2 °F 46.2 °F 45% 30.04 in 10.0 mi SSW 8.1 mph - N/A   Overcast
11:35 PM 67.5 °F 47.5 °F 49% 30.04 in 10.0 mi SSW 6.9 mph - N/A   Overcast
11:55 PM 67.3 °F 47.5 °F 49% 30.06 in 10.0 mi South 8.1 mph - N/A   Overcast